When you browse on this site, cookies collect data to enhance your experience and personalize the content and advertising you see.
Visit our Privacy Policy to learn more. By continuing to use the site, you agree to this use of cookies and data.
  • In Latvia
  • List of Countries
  • For 7 days
  • Water Temperature
  • Weather Map
  • Weather Widgets
  • user-avatar
    Login

    Hourly Weather Delhi

    Today, 27 February, Thursday

    Time Temperature Precipitation Wind Pressure Humidity
    00:00 +20°C° 0 mm 2 mps 741 mmHg 45%
    01:00 +19°C° 0 mm 2 mps 741 mmHg 48%
    02:00 +18°C° 0 mm 2 mps 741 mmHg 51%
    03:00 +19°C° 0 mm 1 mps 741 mmHg 52%
    04:00 +19°C° 0 mm 1 mps 741 mmHg 52%
    05:00 +17°C° 0 mm 0 mps 740 mmHg 56%
    06:00 +19°C° 0 mm 1 mps 741 mmHg 54%
    07:00 +20°C° 0 mm 1 mps 741 mmHg 52%
    08:00 +20°C° 0 mm 1 mps 742 mmHg 50%
    09:00 +23°C° 0 mm 2 mps 742 mmHg 44%
    10:00 +25°C° 0 mm 2 mps 742 mmHg 38%
    11:00 +26°C° 0 mm 2 mps 742 mmHg 36%
    12:00 +28°C° 0 mm 2 mps 742 mmHg 32%
    13:00 +29°C° 0 mm 1 mps 741 mmHg 28%
    14:00 +28°C° 0 mm 0 mps 740 mmHg 24%
    15:00 +30°C° 0 mm 1 mps 739 mmHg 25%
    16:00 +29°C° 0 mm 1 mps 739 mmHg 26%
    17:00 +29°C° 0 mm 1 mps 739 mmHg 27%
    18:00 +27°C° 0 mm 1 mps 739 mmHg 31%
    19:00 +26°C° 0 mm 2 mps 739 mmHg 35%
    20:00 +24°C° 0 mm 3 mps 740 mmHg 39%
    21:00 +22°C° 0 mm 3 mps 740 mmHg 42%
    22:00 +22°C° 0 mm 3 mps 740 mmHg 45%
    23:00 +21°C° 0 mm 2 mps 740 mmHg 48%

    Tomorrow, 28 February, Friday

    Time Temperature Precipitation Wind Pressure Humidity
    00:00 +21°C° 0 mm 2 mps 739 mmHg 49%
    01:00 +20°C° 0 mm 2 mps 739 mmHg 50%
    02:00 +20°C° 0 mm 2 mps 739 mmHg 51%
    03:00 +19°C° 0 mm 2 mps 739 mmHg 53%
    04:00 +19°C° 0 mm 2 mps 738 mmHg 54%
    05:00 +19°C° 0 mm 2 mps 738 mmHg 55%
    06:00 +19°C° 0 mm 3 mps 739 mmHg 54%
    07:00 +20°C° 0 mm 3 mps 739 mmHg 52%
    08:00 +20°C° 0 mm 3 mps 740 mmHg 50%
    09:00 +22°C° 0 mm 3 mps 740 mmHg 45%
    10:00 +26°C° 0 mm 4 mps 740 mmHg 39%
    11:00 +28°C° 0 mm 4 mps 740 mmHg 33%
    12:00 +29°C° 0 mm 4 mps 740 mmHg 31%
    13:00 +30°C° 0 mm 4 mps 739 mmHg 28%
    14:00 +31°C° 0 mm 3 mps 738 mmHg 26%
    15:00 +31°C° 0 mm 3 mps 738 mmHg 28%
    16:00 +30°C° 0 mm 3 mps 737 mmHg 29%
    17:00 +30°C° 0 mm 3 mps 737 mmHg 31%
    18:00 +28°C° 0 mm 4 mps 737 mmHg 36%
    19:00 +27°C° 0 mm 4 mps 738 mmHg 41%
    20:00 +25°C° 0 mm 4 mps 738 mmHg 45%
    21:00 +25°C° 0.1 mm 5 mps 738 mmHg 48%
    22:00 +23°C° 0.1 mm 5 mps 739 mmHg 50%
    23:00 +22°C° 0.1 mm 5 mps 739 mmHg 52%

    Day after tomorrow, 29 February, Saturday

    Time Temperature Precipitation Wind Pressure Humidity
    00:00 +22°C° 0.2 mm 4 mps 738 mmHg 54%
    01:00 +21°C° 0.2 mm 4 mps 738 mmHg 56%
    02:00 +21°C° 0.2 mm 3 mps 738 mmHg 58%
    03:00 +20°C° 0.2 mm 4 mps 738 mmHg 60%
    04:00 +20°C° 0.2 mm 4 mps 737 mmHg 63%
    05:00 +19°C° 0.2 mm 4 mps 737 mmHg 65%
    06:00 +19°C° 0 mm 4 mps 738 mmHg 64%
    07:00 +20°C° 0 mm 4 mps 739 mmHg 63%
    08:00 +20°C° 0 mm 4 mps 739 mmHg 61%
    09:00 +23°C° 0 mm 4 mps 739 mmHg 53%
    10:00 +26°C° 0 mm 4 mps 740 mmHg 45%
    11:00 +28°C° 0 mm 4 mps 740 mmHg 37%
    12:00 +30°C° 0 mm 4 mps 739 mmHg 34%
    13:00 +31°C° 0 mm 3 mps 738 mmHg 30%
    14:00 +33°C° 0 mm 3 mps 737 mmHg 26%
    15:00 +33°C° 0 mm 3 mps 737 mmHg 27%
    16:00 +31°C° 0 mm 3 mps 736 mmHg 28%
    17:00 +31°C° 0 mm 3 mps 736 mmHg 29%
    18:00 +29°C° 0.7 mm 3 mps 736 mmHg 37%
    19:00 +26°C° 0.7 mm 4 mps 737 mmHg 45%
    20:00 +23°C° 0.7 mm 5 mps 737 mmHg 52%
    21:00 +23°C° 0.4 mm 4 mps 738 mmHg 52%
    22:00 +23°C° 0.4 mm 4 mps 738 mmHg 51%
    23:00 +24°C° 0.4 mm 3 mps 738 mmHg 50%

    1 March, Sunday

    Time Temperature Precipitation Wind Pressure Humidity
    00:00 +22°C° 0.2 mm 3 mps 738 mmHg 56%
    01:00 +21°C° 0.2 mm 2 mps 738 mmHg 61%
    02:00 +20°C° 0.2 mm 2 mps 737 mmHg 66%
    03:00 +20°C° 0.5 mm 2 mps 737 mmHg 67%
    04:00 +20°C° 0.5 mm 2 mps 737 mmHg 67%
    05:00 +20°C° 0.5 mm 2 mps 737 mmHg 68%
    06:00 +20°C° 0 mm 2 mps 738 mmHg 65%
    07:00 +21°C° 0 mm 2 mps 738 mmHg 62%
    08:00 +22°C° 0 mm 3 mps 739 mmHg 60%
    09:00 +25°C° 0 mm 2 mps 739 mmHg 51%
    10:00 +28°C° 0 mm 2 mps 739 mmHg 42%
    11:00 +30°C° 0 mm 2 mps 739 mmHg 33%
    12:00 +31°C° 0 mm 2 mps 738 mmHg 30%
    13:00 +32°C° 0 mm 2 mps 737 mmHg 28%
    14:00 +34°C° 0 mm 2 mps 737 mmHg 25%
    15:00 +30°C° 0.5 mm 4 mps 736 mmHg 35%
    16:00 +28°C° 0.5 mm 5 mps 735 mmHg 44%
    17:00 +24°C° 0.5 mm 7 mps 735 mmHg 54%
    18:00 +23°C° 0.7 mm 6 mps 735 mmHg 55%
    19:00 +22°C° 0.7 mm 5 mps 736 mmHg 57%
    20:00 +21°C° 0.7 mm 4 mps 737 mmHg 58%
    21:00 +21°C° 0 mm 3 mps 737 mmHg 58%
    22:00 +21°C° 0 mm 3 mps 737 mmHg 59%
    23:00 +21°C° 0 mm 2 mps 737 mmHg 59%

    2 March, Monday

    Time Temperature Precipitation Wind Pressure Humidity
    00:00 +20°C° 0 mm 2 mps 737 mmHg 62%
    01:00 +21°C° 0 mm 1 mps 737 mmHg 65%
    02:00 +20°C° 0 mm 1 mps 737 mmHg 67%
    03:00 +20°C° 0 mm 1 mps 737 mmHg 69%
    04:00 +19°C° 0 mm 1 mps 737 mmHg 70%
    05:00 +19°C° 0 mm 1 mps 736 mmHg 71%
    06:00 +20°C° 0 mm 1 mps 737 mmHg 68%
    07:00 +21°C° 0 mm 1 mps 738 mmHg 65%
    08:00 +21°C° 0 mm 1 mps 738 mmHg 62%
    09:00 +24°C° 0 mm 1 mps 739 mmHg 55%
    10:00 +26°C° 0 mm 1 mps 739 mmHg 48%
    11:00 +28°C° 0 mm 1 mps 739 mmHg 41%
    12:00 +29°C° 0 mm 1 mps 738 mmHg 38%
    13:00 +30°C° 0 mm 1 mps 737 mmHg 35%
    14:00 +29°C° 0 mm 0 mps 737 mmHg 31%
    15:00 +31°C° 0 mm 1 mps 736 mmHg 32%
    16:00 +30°C° 0 mm 1 mps 736 mmHg 32%
    17:00 +30°C° 0 mm 1 mps 736 mmHg 32%
    18:00 +29°C° 0 mm 1 mps 736 mmHg 35%
    19:00 +27°C° 0 mm 1 mps 736 mmHg 37%
    20:00 +26°C° 0 mm 1 mps 737 mmHg 40%
    21:00 +25°C° 0 mm 1 mps 737 mmHg 43%
    22:00 +25°C° 0 mm 1 mps 737 mmHg 46%
    23:00 +24°C° 0 mm 1 mps 737 mmHg 49%

    3 March, Tuesday

    Time Temperature Precipitation Wind Pressure Humidity
    00:00 +23°C° 0 mm 1 mps 737 mmHg 49%
    01:00 +23°C° 0 mm 1 mps 737 mmHg 50%
    02:00 +23°C° 0 mm 1 mps 737 mmHg 51%
    03:00 +22°C° 0 mm 1 mps 736 mmHg 51%
    04:00 +22°C° 0 mm 1 mps 736 mmHg 52%
    05:00 +22°C° 0 mm 1 mps 736 mmHg 52%
    06:00 +22°C° 0 mm 1 mps 737 mmHg 50%
    07:00 +23°C° 0 mm 1 mps 738 mmHg 48%
    08:00 +24°C° 0 mm 1 mps 738 mmHg 46%
    09:00 +26°C° 0 mm 1 mps 738 mmHg 41%
    10:00 +28°C° 0 mm 1 mps 738 mmHg 36%
    11:00 +30°C° 0 mm 1 mps 739 mmHg 31%
    12:00 +31°C° 0 mm 1 mps 738 mmHg 28%
    13:00 +32°C° 0 mm 2 mps 737 mmHg 24%
    14:00 +32°C° 0 mm 2 mps 736 mmHg 21%
    15:00 +31°C° 0 mm 2 mps 736 mmHg 23%
    16:00 +31°C° 0 mm 2 mps 736 mmHg 24%
    17:00 +30°C° 0 mm 2 mps 735 mmHg 25%
    18:00 +29°C° 0 mm 2 mps 735 mmHg 27%
    19:00 +28°C° 0 mm 2 mps 736 mmHg 29%
    20:00 +27°C° 0 mm 2 mps 736 mmHg 31%
    21:00 +26°C° 0 mm 1 mps 736 mmHg 32%
    22:00 +25°C° 0 mm 1 mps 736 mmHg 34%
    23:00 +24°C° 0 mm 1 mps 736 mmHg 35%
    Show more